Year,Month,Day,Hour,Minute,Value (Times are PST for temperature in C)
2010,10,17,00,00,4.90
2010,10,17,00,01,4.90
2010,10,17,00,02,4.90
2010,10,17,00,03,4.90
2010,10,17,00,04,4.90
2010,10,17,00,05,4.90
2010,10,17,00,06,4.90
2010,10,17,00,07,4.80
2010,10,17,00,08,4.80
2010,10,17,00,09,4.80
2010,10,17,00,10,4.80
2010,10,17,00,11,4.80
2010,10,17,00,12,4.80
2010,10,17,00,13,4.80
2010,10,17,00,14,4.80
2010,10,17,00,15,4.80
2010,10,17,00,16,4.80
2010,10,17,00,17,4.80
2010,10,17,00,18,4.90
2010,10,17,00,19,4.90
2010,10,17,00,20,4.90
2010,10,17,00,21,4.90
2010,10,17,00,22,4.90
2010,10,17,00,23,4.90
2010,10,17,00,24,4.90
2010,10,17,00,25,4.90
2010,10,17,00,26,4.90
2010,10,17,00,27,5.00
2010,10,17,00,28,5.00
2010,10,17,00,29,5.00
2010,10,17,00,30,5.00
2010,10,17,00,31,5.10
2010,10,17,00,32,5.00
2010,10,17,00,33,5.00
2010,10,17,00,34,5.00
2010,10,17,00,35,4.90
2010,10,17,00,36,4.90
2010,10,17,00,37,4.90
2010,10,17,00,38,4.90
2010,10,17,00,39,4.90
2010,10,17,00,40,5.00
2010,10,17,00,41,5.00
2010,10,17,00,42,5.10
2010,10,17,00,43,5.10
2010,10,17,00,44,5.10
2010,10,17,00,45,5.20
2010,10,17,00,46,5.20
2010,10,17,00,47,5.20
2010,10,17,00,48,5.20
2010,10,17,00,49,5.20
2010,10,17,00,50,5.30
2010,10,17,00,51,5.30
2010,10,17,00,52,5.30
2010,10,17,00,53,5.30
2010,10,17,00,54,5.30
2010,10,17,00,55,5.30
2010,10,17,00,56,5.30
2010,10,17,00,57,5.30
2010,10,17,00,58,5.30
2010,10,17,00,59,5.20
2010,10,17,01,00,5.20
2010,10,17,01,01,5.10
2010,10,17,01,02,5.10
2010,10,17,01,03,5.10
2010,10,17,01,04,5.10
2010,10,17,01,05,5.10
2010,10,17,01,06,5.10
2010,10,17,01,07,5.10
2010,10,17,01,08,5.10
2010,10,17,01,09,5.20
2010,10,17,01,10,5.20
2010,10,17,01,11,5.20
2010,10,17,01,12,5.20
2010,10,17,01,13,5.30
2010,10,17,01,14,5.30
2010,10,17,01,15,5.30
2010,10,17,01,16,5.30
2010,10,17,01,17,5.30
2010,10,17,01,18,5.30
2010,10,17,01,19,5.30
2010,10,17,01,20,5.30
2010,10,17,01,21,5.30
2010,10,17,01,22,5.30
2010,10,17,01,23,5.20
2010,10,17,01,24,5.20
2010,10,17,01,25,5.10
2010,10,17,01,26,5.10
2010,10,17,01,27,5.10
2010,10,17,01,28,5.10
2010,10,17,01,29,5.10
2010,10,17,01,30,5.10
2010,10,17,01,31,5.10
2010,10,17,01,32,5.00
2010,10,17,01,33,5.00
2010,10,17,01,34,4.90
2010,10,17,01,35,4.90
2010,10,17,01,36,4.90
2010,10,17,01,37,4.90
2010,10,17,01,38,4.80
2010,10,17,01,39,4.80
2010,10,17,01,40,4.80
2010,10,17,01,41,4.80
2010,10,17,01,42,4.80
2010,10,17,01,43,4.80
2010,10,17,01,44,4.80
2010,10,17,01,45,4.80
2010,10,17,01,46,4.80
2010,10,17,01,47,4.80
2010,10,17,01,48,4.80
2010,10,17,01,49,4.70
2010,10,17,01,50,4.70
2010,10,17,01,51,4.70
2010,10,17,01,52,4.70
2010,10,17,01,53,4.60
2010,10,17,01,54,4.60
2010,10,17,01,55,4.60
2010,10,17,01,56,4.60
2010,10,17,01,57,4.60
2010,10,17,01,58,4.50
2010,10,17,01,59,4.50
2010,10,17,02,00,4.40
2010,10,17,02,01,4.50
2010,10,17,02,02,4.50
2010,10,17,02,03,4.50
2010,10,17,02,04,4.50
2010,10,17,02,05,4.50
2010,10,17,02,06,4.50
2010,10,17,02,07,4.50
2010,10,17,02,08,4.40
2010,10,17,02,09,4.40
2010,10,17,02,10,4.40
2010,10,17,02,11,4.40
2010,10,17,02,12,4.40
2010,10,17,02,13,4.40
2010,10,17,02,14,4.40
2010,10,17,02,15,4.40
2010,10,17,02,16,4.40
2010,10,17,02,17,4.50
2010,10,17,02,18,4.40
2010,10,17,02,19,4.40
2010,10,17,02,20,4.40
2010,10,17,02,21,4.40
2010,10,17,02,22,4.40
2010,10,17,02,23,4.40
2010,10,17,02,24,4.40
2010,10,17,02,25,4.40
2010,10,17,02,26,4.50
2010,10,17,02,27,4.40
2010,10,17,02,28,4.40
2010,10,17,02,29,4.40
2010,10,17,02,30,4.40
2010,10,17,02,31,4.40
2010,10,17,02,32,4.40
2010,10,17,02,33,4.40
2010,10,17,02,34,4.40
2010,10,17,02,35,4.50
2010,10,17,02,36,4.60
2010,10,17,02,37,4.60
2010,10,17,02,38,4.70
2010,10,17,02,39,4.70
2010,10,17,02,40,4.70
2010,10,17,02,41,4.80
2010,10,17,02,42,4.80
2010,10,17,02,43,4.80
2010,10,17,02,44,4.80
2010,10,17,02,45,4.80
2010,10,17,02,46,4.70
2010,10,17,02,47,4.70
2010,10,17,02,48,4.60
2010,10,17,02,49,4.60
2010,10,17,02,50,4.60
2010,10,17,02,51,4.60
2010,10,17,02,52,4.60
2010,10,17,02,53,4.50
2010,10,17,02,54,4.50
2010,10,17,02,55,4.40
2010,10,17,02,56,4.40
2010,10,17,02,57,4.30
2010,10,17,02,58,4.30
2010,10,17,02,59,4.30
2010,10,17,03,00,4.20
2010,10,17,03,01,4.20
2010,10,17,03,02,4.20
2010,10,17,03,03,4.20
2010,10,17,03,04,4.20
2010,10,17,03,05,4.10
2010,10,17,03,06,4.10
2010,10,17,03,07,4.10
2010,10,17,03,08,4.10
2010,10,17,03,09,4.10
2010,10,17,03,10,4.10
2010,10,17,03,11,4.10
2010,10,17,03,12,4.10
2010,10,17,03,13,4.10
2010,10,17,03,14,4.10
2010,10,17,03,15,4.10
2010,10,17,03,16,4.10
2010,10,17,03,17,4.10
2010,10,17,03,18,4.10
2010,10,17,03,19,4.10
2010,10,17,03,20,4.10
2010,10,17,03,21,4.20
2010,10,17,03,22,4.20
2010,10,17,03,23,4.30
2010,10,17,03,24,4.30
2010,10,17,03,25,4.40
2010,10,17,03,26,4.40
2010,10,17,03,27,4.40
2010,10,17,03,28,4.30
2010,10,17,03,29,4.30
2010,10,17,03,30,4.30
2010,10,17,03,31,4.30
2010,10,17,03,32,4.30
2010,10,17,03,33,4.30
2010,10,17,03,34,4.30
2010,10,17,03,35,4.20
2010,10,17,03,36,4.20
2010,10,17,03,37,4.20
2010,10,17,03,38,4.20
2010,10,17,03,39,4.10
2010,10,17,03,40,4.10
2010,10,17,03,41,4.00
2010,10,17,03,42,4.00
2010,10,17,03,43,4.00
2010,10,17,03,44,4.00
2010,10,17,03,45,3.90
2010,10,17,03,46,3.90
2010,10,17,03,47,3.90
2010,10,17,03,48,3.90
2010,10,17,03,49,3.90
2010,10,17,03,50,3.90
2010,10,17,03,51,3.90
2010,10,17,03,52,3.90
2010,10,17,03,53,3.90
2010,10,17,03,54,3.90
2010,10,17,03,55,3.90
2010,10,17,03,56,3.90
2010,10,17,03,57,3.90
2010,10,17,03,58,3.90
2010,10,17,03,59,3.90
2010,10,17,04,00,3.80
2010,10,17,04,01,3.80
2010,10,17,04,02,3.80
2010,10,17,04,03,3.80
2010,10,17,04,04,3.80
2010,10,17,04,05,3.80
2010,10,17,04,06,3.80
2010,10,17,04,07,3.80
2010,10,17,04,08,3.80
2010,10,17,04,09,3.80
2010,10,17,04,10,3.80
2010,10,17,04,11,3.80
2010,10,17,04,12,3.80
2010,10,17,04,13,3.80
2010,10,17,04,14,3.80
2010,10,17,04,15,3.80
2010,10,17,04,16,3.70
2010,10,17,04,17,3.70
2010,10,17,04,18,3.70
2010,10,17,04,19,3.70
2010,10,17,04,20,3.70
2010,10,17,04,21,3.80
2010,10,17,04,22,3.80
2010,10,17,04,23,3.80
2010,10,17,04,24,3.80
2010,10,17,04,25,3.80
2010,10,17,04,26,3.80
2010,10,17,04,27,3.80
2010,10,17,04,28,3.80
2010,10,17,04,29,3.80
2010,10,17,04,30,3.80
2010,10,17,04,31,3.80
2010,10,17,04,32,3.80
2010,10,17,04,33,3.80
2010,10,17,04,34,3.80
2010,10,17,04,35,3.90
2010,10,17,04,36,3.90
2010,10,17,04,37,3.90
2010,10,17,04,38,3.90
2010,10,17,04,39,3.90
2010,10,17,04,40,4.00
2010,10,17,04,41,4.00
2010,10,17,04,42,4.00
2010,10,17,04,43,4.00
2010,10,17,04,44,4.10
2010,10,17,04,45,4.10
2010,10,17,04,46,4.10
2010,10,17,04,47,4.10
2010,10,17,04,48,4.10
2010,10,17,04,49,4.10
2010,10,17,04,50,4.10
2010,10,17,04,51,4.20
2010,10,17,04,52,4.20
2010,10,17,04,53,4.20
2010,10,17,04,54,4.20
2010,10,17,04,55,4.20
2010,10,17,04,56,4.30
2010,10,17,04,57,4.30
2010,10,17,04,58,4.30
2010,10,17,04,59,4.30
2010,10,17,05,00,4.30
2010,10,17,05,01,4.30
2010,10,17,05,02,4.30
2010,10,17,05,03,4.30
2010,10,17,05,04,4.30
2010,10,17,05,05,4.40
2010,10,17,05,06,4.40
2010,10,17,05,07,4.40
2010,10,17,05,08,4.40
2010,10,17,05,09,4.50
2010,10,17,05,10,4.50
2010,10,17,05,11,4.50
2010,10,17,05,12,4.50
2010,10,17,05,13,4.60
2010,10,17,05,14,4.60
2010,10,17,05,15,4.60
2010,10,17,05,16,4.60
2010,10,17,05,17,4.60
2010,10,17,05,18,4.60
2010,10,17,05,19,4.70
2010,10,17,05,20,4.70
2010,10,17,05,21,4.80
2010,10,17,05,22,4.80
2010,10,17,05,23,4.90
2010,10,17,05,24,4.90
2010,10,17,05,25,5.00
2010,10,17,05,26,5.00
2010,10,17,05,27,5.00
2010,10,17,05,28,5.00
2010,10,17,05,29,5.00
2010,10,17,05,30,4.90
2010,10,17,05,31,4.90
2010,10,17,05,32,4.90
2010,10,17,05,33,4.90
2010,10,17,05,34,4.90
2010,10,17,05,35,4.90
2010,10,17,05,36,4.90
2010,10,17,05,37,4.90
2010,10,17,05,38,4.90
2010,10,17,05,39,4.90
2010,10,17,05,40,4.90
2010,10,17,05,41,4.90
2010,10,17,05,42,4.90
2010,10,17,05,43,4.90
2010,10,17,05,44,5.00
2010,10,17,05,45,5.00
2010,10,17,05,46,5.00
2010,10,17,05,47,5.00
2010,10,17,05,48,5.00
2010,10,17,05,49,5.00
2010,10,17,05,50,5.00
2010,10,17,05,51,5.10
2010,10,17,05,52,5.10
2010,10,17,05,53,5.10
2010,10,17,05,54,5.10
2010,10,17,05,55,5.10
2010,10,17,05,56,5.20
2010,10,17,05,57,5.20
2010,10,17,05,58,5.20
2010,10,17,05,59,5.20
2010,10,17,06,00,5.20
2010,10,17,06,01,5.30
2010,10,17,06,02,5.30
2010,10,17,06,03,5.20
2010,10,17,06,04,5.20
2010,10,17,06,05,5.20
2010,10,17,06,06,5.10
2010,10,17,06,07,5.10
2010,10,17,06,08,5.10
2010,10,17,06,09,5.10
2010,10,17,06,10,5.10
2010,10,17,06,11,5.00
2010,10,17,06,12,5.00
2010,10,17,06,13,4.90
2010,10,17,06,14,4.90
2010,10,17,06,15,4.90
2010,10,17,06,16,4.90
2010,10,17,06,17,4.90
2010,10,17,06,18,4.90
2010,10,17,06,19,4.90
2010,10,17,06,20,4.90
2010,10,17,06,21,4.90
2010,10,17,06,22,4.90
2010,10,17,06,23,4.90
2010,10,17,06,24,4.90
2010,10,17,06,25,4.90
2010,10,17,06,26,5.00
2010,10,17,06,27,5.00
2010,10,17,06,28,5.10
2010,10,17,06,29,5.10
2010,10,17,06,30,5.10
2010,10,17,06,31,5.20
2010,10,17,06,32,5.20
2010,10,17,06,33,5.20
2010,10,17,06,34,5.30
2010,10,17,06,35,5.30
2010,10,17,06,36,5.40
2010,10,17,06,37,5.40
2010,10,17,06,38,5.40
2010,10,17,06,39,5.50
2010,10,17,06,40,5.50
2010,10,17,06,41,5.60
2010,10,17,06,42,5.60
2010,10,17,06,43,5.60
2010,10,17,06,44,5.60
2010,10,17,06,45,5.70
2010,10,17,06,46,5.70
2010,10,17,06,47,5.70
2010,10,17,06,48,5.70
2010,10,17,06,49,5.70
2010,10,17,06,50,5.80
2010,10,17,06,51,5.80
2010,10,17,06,52,5.90
2010,10,17,06,53,5.90
2010,10,17,06,54,5.90
2010,10,17,06,55,5.80
2010,10,17,06,56,5.80
2010,10,17,06,57,5.80
2010,10,17,06,58,5.70
2010,10,17,06,59,5.70
2010,10,17,07,00,5.70
2010,10,17,07,01,5.70
2010,10,17,07,02,5.70
2010,10,17,07,03,5.70
2010,10,17,07,04,5.70
2010,10,17,07,05,5.70
2010,10,17,07,06,5.70
2010,10,17,07,07,5.70
2010,10,17,07,08,5.70
2010,10,17,07,09,5.80
2010,10,17,07,10,5.80
2010,10,17,07,11,5.80
2010,10,17,07,12,5.80
2010,10,17,07,13,5.80
2010,10,17,07,14,5.90
2010,10,17,07,15,5.90
2010,10,17,07,16,5.90
2010,10,17,07,17,5.90
2010,10,17,07,18,5.90
2010,10,17,07,19,5.90
2010,10,17,07,20,5.90
2010,10,17,07,21,5.90
2010,10,17,07,22,5.90
2010,10,17,07,23,5.90
2010,10,17,07,24,5.90
2010,10,17,07,25,6.00
2010,10,17,07,26,6.00
2010,10,17,07,27,6.00
2010,10,17,07,28,5.90
2010,10,17,07,29,5.90
2010,10,17,07,30,5.90
2010,10,17,07,31,5.90
2010,10,17,07,32,5.90
2010,10,17,07,33,5.90
2010,10,17,07,34,5.90
2010,10,17,07,35,6.00
2010,10,17,07,36,6.00
2010,10,17,07,37,6.00
2010,10,17,07,38,6.00
2010,10,17,07,39,6.00
2010,10,17,07,40,6.00
2010,10,17,07,41,6.00
2010,10,17,07,42,6.00
2010,10,17,07,43,6.00
2010,10,17,07,44,6.00
2010,10,17,07,45,6.00
2010,10,17,07,46,6.00
2010,10,17,07,47,6.10
2010,10,17,07,48,6.10
2010,10,17,07,49,6.10
2010,10,17,07,50,6.10
2010,10,17,07,51,6.10
2010,10,17,07,52,6.10
2010,10,17,07,53,6.10
2010,10,17,07,54,6.10
2010,10,17,07,55,6.10
2010,10,17,07,56,6.00
2010,10,17,07,57,6.00
2010,10,17,07,58,6.00
2010,10,17,07,59,6.00
2010,10,17,08,00,6.00
2010,10,17,08,01,6.00
2010,10,17,08,02,6.00
2010,10,17,08,03,6.00
2010,10,17,08,04,6.00
2010,10,17,08,05,6.00
2010,10,17,08,06,6.00
2010,10,17,08,07,6.00
2010,10,17,08,08,5.90
2010,10,17,08,09,5.90
2010,10,17,08,10,5.90
2010,10,17,08,11,5.90
2010,10,17,08,12,5.90
2010,10,17,08,13,5.90
2010,10,17,08,14,5.90
2010,10,17,08,15,5.90
2010,10,17,08,16,5.90
2010,10,17,08,17,5.90
2010,10,17,08,18,5.90
2010,10,17,08,19,5.90
2010,10,17,08,20,5.90
2010,10,17,08,21,5.90
2010,10,17,08,22,5.90
2010,10,17,08,23,5.90
2010,10,17,08,24,5.90
2010,10,17,08,25,5.90
2010,10,17,08,26,5.90
2010,10,17,08,27,5.90
2010,10,17,08,28,5.90
2010,10,17,08,29,5.90
2010,10,17,08,30,5.90
2010,10,17,08,31,6.00
2010,10,17,08,32,6.00
2010,10,17,08,33,6.00
2010,10,17,08,34,6.00
2010,10,17,08,35,6.00
2010,10,17,08,36,6.10
2010,10,17,08,37,6.10
2010,10,17,08,38,6.10
2010,10,17,08,39,6.10
2010,10,17,08,40,6.10
2010,10,17,08,41,6.10
2010,10,17,08,42,6.20
2010,10,17,08,43,6.20
2010,10,17,08,44,6.20
2010,10,17,08,45,6.20
2010,10,17,08,46,6.20
2010,10,17,08,47,6.30
2010,10,17,08,48,6.30
2010,10,17,08,49,6.30
2010,10,17,08,50,6.30
2010,10,17,08,51,6.30
2010,10,17,08,52,6.30
2010,10,17,08,53,6.30
2010,10,17,08,54,6.40
2010,10,17,08,55,6.40
2010,10,17,08,56,6.40
2010,10,17,08,57,6.40
2010,10,17,08,58,6.40
2010,10,17,08,59,6.40
2010,10,17,09,00,6.40
2010,10,17,09,01,6.40
2010,10,17,09,02,6.40
2010,10,17,09,03,6.40
2010,10,17,09,04,6.50
2010,10,17,09,05,6.50
2010,10,17,09,06,6.50
2010,10,17,09,07,6.50
2010,10,17,09,08,6.50
2010,10,17,09,09,6.50
2010,10,17,09,10,6.60
2010,10,17,09,11,6.60
2010,10,17,09,12,6.60
2010,10,17,09,13,6.60
2010,10,17,09,14,6.70
2010,10,17,09,15,6.70
2010,10,17,09,16,6.70
2010,10,17,09,17,6.70
2010,10,17,09,18,6.70
2010,10,17,09,19,6.70
2010,10,17,09,20,6.70
2010,10,17,09,21,6.80
2010,10,17,09,22,6.80
2010,10,17,09,23,6.80
2010,10,17,09,24,6.80
2010,10,17,09,25,6.80
2010,10,17,09,26,6.80
2010,10,17,09,27,6.80
2010,10,17,09,28,6.80
2010,10,17,09,29,6.80
2010,10,17,09,30,6.80
2010,10,17,09,31,6.80
2010,10,17,09,32,6.80
2010,10,17,09,33,6.90
2010,10,17,09,34,6.90
2010,10,17,09,35,6.90
2010,10,17,09,36,6.90
2010,10,17,09,37,6.90
2010,10,17,09,38,6.90
2010,10,17,09,39,6.90
2010,10,17,09,40,7.00
2010,10,17,09,41,7.00
2010,10,17,09,42,7.00
2010,10,17,09,43,7.10
2010,10,17,09,44,7.10
2010,10,17,09,45,7.10
2010,10,17,09,46,7.10
2010,10,17,09,47,7.20
2010,10,17,09,48,7.20
2010,10,17,09,49,7.20
2010,10,17,09,50,7.20
2010,10,17,09,51,7.20
2010,10,17,09,52,7.20
2010,10,17,09,53,7.20
2010,10,17,09,54,7.20
2010,10,17,09,55,7.20
2010,10,17,09,56,7.20
2010,10,17,09,57,7.20
2010,10,17,09,58,7.20
2010,10,17,09,59,7.20
2010,10,17,10,00,7.20
2010,10,17,10,01,7.20
2010,10,17,10,02,7.20
2010,10,17,10,03,7.20
2010,10,17,10,04,7.20
2010,10,17,10,05,7.30
2010,10,17,10,06,7.30
2010,10,17,10,07,7.30
2010,10,17,10,08,7.30
2010,10,17,10,09,7.30
2010,10,17,10,10,7.30
2010,10,17,10,11,7.30
2010,10,17,10,12,7.30
2010,10,17,10,13,7.30
2010,10,17,10,14,7.40
2010,10,17,10,15,7.40
2010,10,17,10,16,7.40
2010,10,17,10,17,7.40
2010,10,17,10,18,7.40
2010,10,17,10,19,7.30
2010,10,17,10,20,7.30
2010,10,17,10,21,7.30
2010,10,17,10,22,7.30
2010,10,17,10,23,7.30
2010,10,17,10,24,7.30
2010,10,17,10,25,7.30
2010,10,17,10,26,7.30
2010,10,17,10,27,7.30
2010,10,17,10,28,7.30
2010,10,17,10,29,7.30
2010,10,17,10,30,7.30
2010,10,17,10,31,7.30
2010,10,17,10,32,7.30
2010,10,17,10,33,7.30
2010,10,17,10,34,7.40
2010,10,17,10,35,7.40
2010,10,17,10,36,7.40
2010,10,17,10,37,7.40
2010,10,17,10,38,7.50
2010,10,17,10,39,7.50
2010,10,17,10,40,7.50
2010,10,17,10,41,7.60
2010,10,17,10,42,7.60
2010,10,17,10,43,7.60
2010,10,17,10,44,7.60
2010,10,17,10,45,7.60
2010,10,17,10,46,7.60
2010,10,17,10,47,7.70
2010,10,17,10,48,7.70
2010,10,17,10,49,7.70
2010,10,17,10,50,7.70
2010,10,17,10,51,7.70
2010,10,17,10,52,7.70
2010,10,17,10,53,7.80
2010,10,17,10,54,7.80
2010,10,17,10,55,7.80
2010,10,17,10,56,7.90
2010,10,17,10,57,7.90
2010,10,17,10,58,7.90
2010,10,17,10,59,7.90
2010,10,17,11,00,7.90
2010,10,17,11,01,8.00
2010,10,17,11,02,8.00
2010,10,17,11,03,8.00
2010,10,17,11,04,8.00
2010,10,17,11,05,8.00
2010,10,17,11,06,8.10
2010,10,17,11,07,8.10
2010,10,17,11,08,8.10
2010,10,17,11,09,8.10
2010,10,17,11,10,8.10
2010,10,17,11,11,8.10
2010,10,17,11,12,8.10
2010,10,17,11,13,8.20
2010,10,17,11,14,8.20
2010,10,17,11,15,8.20
2010,10,17,11,16,8.20
2010,10,17,11,17,8.20
2010,10,17,11,18,8.30
2010,10,17,11,19,8.30
2010,10,17,11,20,8.30
2010,10,17,11,21,8.30
2010,10,17,11,22,8.30
2010,10,17,11,23,8.30
2010,10,17,11,24,8.30
2010,10,17,11,25,8.40
2010,10,17,11,26,8.40
2010,10,17,11,27,8.40
2010,10,17,11,28,8.40
2010,10,17,11,29,8.40
2010,10,17,11,30,8.40
2010,10,17,11,31,8.40
2010,10,17,11,32,8.50
2010,10,17,11,33,8.50
2010,10,17,11,34,8.60
2010,10,17,11,35,8.60
2010,10,17,11,36,8.60
2010,10,17,11,37,8.60
2010,10,17,11,38,8.60
2010,10,17,11,39,8.60
2010,10,17,11,40,8.60
2010,10,17,11,41,8.60
2010,10,17,11,42,8.70
2010,10,17,11,43,8.70
2010,10,17,11,44,8.70
2010,10,17,11,45,8.70
2010,10,17,11,46,8.80
2010,10,17,11,47,8.90
2010,10,17,11,48,8.90
2010,10,17,11,49,9.00
2010,10,17,11,50,9.10
2010,10,17,11,51,9.10
2010,10,17,11,52,9.20
2010,10,17,11,53,9.30
2010,10,17,11,54,9.30
2010,10,17,11,55,9.30
2010,10,17,11,56,9.40
2010,10,17,11,57,9.50
2010,10,17,11,58,9.60
2010,10,17,11,59,9.60
2010,10,17,12,00,9.70
2010,10,17,12,01,9.70
2010,10,17,12,02,9.70
2010,10,17,12,03,9.70
2010,10,17,12,04,9.80
2010,10,17,12,05,9.80
2010,10,17,12,06,9.80
2010,10,17,12,07,9.80
2010,10,17,12,08,9.70
2010,10,17,12,09,9.70
2010,10,17,12,10,9.70
2010,10,17,12,11,9.70
2010,10,17,12,12,9.70
2010,10,17,12,13,9.70
2010,10,17,12,14,9.70
2010,10,17,12,15,9.80
2010,10,17,12,16,9.80
2010,10,17,12,17,9.80
2010,10,17,12,18,9.80
2010,10,17,12,19,9.90
2010,10,17,12,20,9.90
2010,10,17,12,21,9.90
2010,10,17,12,22,10.00
2010,10,17,12,23,10.00
2010,10,17,12,24,10.00
2010,10,17,12,25,10.10
2010,10,17,12,26,10.10
2010,10,17,12,27,10.20
2010,10,17,12,28,10.20
2010,10,17,12,29,10.30
2010,10,17,12,30,10.30
2010,10,17,12,31,10.30
2010,10,17,12,32,10.30
2010,10,17,12,33,10.30
2010,10,17,12,34,10.40
2010,10,17,12,35,10.40
2010,10,17,12,36,10.50
2010,10,17,12,37,10.60
2010,10,17,12,38,10.60
2010,10,17,12,39,10.60
2010,10,17,12,40,10.60
2010,10,17,12,41,10.60
2010,10,17,12,42,10.70
2010,10,17,12,43,10.70
2010,10,17,12,44,10.70
2010,10,17,12,45,10.60
2010,10,17,12,46,10.60
2010,10,17,12,47,10.50
2010,10,17,12,48,10.50
2010,10,17,12,49,10.40
2010,10,17,12,50,10.40
2010,10,17,12,51,10.40
2010,10,17,12,52,10.40
2010,10,17,12,53,10.40
2010,10,17,12,54,10.30
2010,10,17,12,55,10.20
2010,10,17,12,56,10.20
2010,10,17,12,57,10.20
2010,10,17,12,58,10.30
2010,10,17,12,59,10.30
2010,10,17,13,00,10.40
2010,10,17,13,01,10.40
2010,10,17,13,02,10.40
2010,10,17,13,03,10.30
2010,10,17,13,04,10.30
2010,10,17,13,05,10.20
2010,10,17,13,06,10.20
2010,10,17,13,07,10.20
2010,10,17,13,08,10.20
2010,10,17,13,09,10.20
2010,10,17,13,10,10.10
2010,10,17,13,11,10.10
2010,10,17,13,12,10.10
2010,10,17,13,13,10.20
2010,10,17,13,14,10.20
2010,10,17,13,15,10.30
2010,10,17,13,16,10.30
2010,10,17,13,17,10.40
2010,10,17,13,18,10.50
2010,10,17,13,19,10.60
2010,10,17,13,20,10.60
2010,10,17,13,21,10.60
2010,10,17,13,22,10.60
2010,10,17,13,23,10.60
2010,10,17,13,24,10.60
2010,10,17,13,25,10.50
2010,10,17,13,26,10.50
2010,10,17,13,27,10.50
2010,10,17,13,28,10.50
2010,10,17,13,29,10.50
2010,10,17,13,30,10.40
2010,10,17,13,31,10.30
2010,10,17,13,32,10.30
2010,10,17,13,33,10.40
2010,10,17,13,34,10.30
2010,10,17,13,35,10.30
2010,10,17,13,36,10.30
2010,10,17,13,37,10.30
2010,10,17,13,38,10.30
2010,10,17,13,39,10.40
2010,10,17,13,40,10.40
2010,10,17,13,41,10.40
2010,10,17,13,42,10.40
2010,10,17,13,43,10.40
2010,10,17,13,44,10.50
2010,10,17,13,45,10.50
2010,10,17,13,46,10.50
2010,10,17,13,47,10.50
2010,10,17,13,48,10.50
2010,10,17,13,49,10.50
2010,10,17,13,50,10.50
2010,10,17,13,51,10.50
2010,10,17,13,52,10.50
2010,10,17,13,53,10.60
2010,10,17,13,54,10.70
2010,10,17,13,55,10.70
2010,10,17,13,56,10.70
2010,10,17,13,57,10.80
2010,10,17,13,58,10.80
2010,10,17,13,59,10.80
2010,10,17,14,00,10.90
2010,10,17,14,01,10.90
2010,10,17,14,02,11.00
2010,10,17,14,03,11.00
2010,10,17,14,04,11.10
2010,10,17,14,05,11.10
2010,10,17,14,06,11.10
2010,10,17,14,07,11.10
2010,10,17,14,08,11.00
2010,10,17,14,09,11.00
2010,10,17,14,10,10.90
2010,10,17,14,11,10.90
2010,10,17,14,12,10.90
2010,10,17,14,13,10.90
2010,10,17,14,14,11.00
2010,10,17,14,15,11.00
2010,10,17,14,16,11.10
2010,10,17,14,17,11.10
2010,10,17,14,18,11.10
2010,10,17,14,19,11.20
2010,10,17,14,20,11.20
2010,10,17,14,21,11.20
2010,10,17,14,22,11.20
2010,10,17,14,23,11.30
2010,10,17,14,24,11.30
2010,10,17,14,25,11.30
2010,10,17,14,26,11.40
2010,10,17,14,27,11.40
2010,10,17,14,28,11.40
2010,10,17,14,29,11.40
2010,10,17,14,30,11.40
2010,10,17,14,31,11.40
2010,10,17,14,32,11.40
2010,10,17,14,33,11.40
2010,10,17,14,34,11.40
2010,10,17,14,35,11.40
2010,10,17,14,36,11.40
2010,10,17,14,37,11.40
2010,10,17,14,38,11.30
2010,10,17,14,39,11.30
2010,10,17,14,40,11.30
2010,10,17,14,41,11.30
2010,10,17,14,42,11.20
2010,10,17,14,43,11.30
2010,10,17,14,44,11.30
2010,10,17,14,45,11.30
2010,10,17,14,46,11.40
2010,10,17,14,47,11.40
2010,10,17,14,48,11.40
2010,10,17,14,49,11.30
2010,10,17,14,50,11.30
2010,10,17,14,51,11.30
2010,10,17,14,52,11.30
2010,10,17,14,53,11.30
2010,10,17,14,54,11.40
2010,10,17,14,55,11.40
2010,10,17,14,56,11.40
2010,10,17,14,57,11.50
2010,10,17,14,58,11.50
2010,10,17,14,59,11.50
2010,10,17,15,00,11.60
2010,10,17,15,01,11.60
2010,10,17,15,02,11.60
2010,10,17,15,03,11.60
2010,10,17,15,04,11.60
2010,10,17,15,05,11.70
2010,10,17,15,06,11.70
2010,10,17,15,07,11.70
2010,10,17,15,08,11.70
2010,10,17,15,09,11.70
2010,10,17,15,10,11.70
2010,10,17,15,11,11.70
2010,10,17,15,12,11.70
2010,10,17,15,13,11.80
2010,10,17,15,14,11.70
2010,10,17,15,15,11.70
2010,10,17,15,16,11.70
2010,10,17,15,17,11.70
2010,10,17,15,18,11.80
2010,10,17,15,19,11.80
2010,10,17,15,20,11.80
2010,10,17,15,21,11.90
2010,10,17,15,22,11.90
2010,10,17,15,23,12.00
2010,10,17,15,24,12.00
2010,10,17,15,25,12.00
2010,10,17,15,26,12.00
2010,10,17,15,27,11.90
2010,10,17,15,28,11.90
2010,10,17,15,29,11.80
2010,10,17,15,30,11.80
2010,10,17,15,31,11.70
2010,10,17,15,32,11.60
2010,10,17,15,33,11.60
2010,10,17,15,34,11.50
2010,10,17,15,35,11.50
2010,10,17,15,36,11.50
2010,10,17,15,37,11.50
2010,10,17,15,38,11.50
2010,10,17,15,39,11.50
2010,10,17,15,40,11.60
2010,10,17,15,41,11.50
2010,10,17,15,42,11.50
2010,10,17,15,43,11.40
2010,10,17,15,44,11.40
2010,10,17,15,45,11.40
2010,10,17,15,46,11.40
2010,10,17,15,47,11.40
2010,10,17,15,48,11.50
2010,10,17,15,49,11.40
2010,10,17,15,50,11.40
2010,10,17,15,51,11.50
2010,10,17,15,52,11.50
2010,10,17,15,53,11.50
2010,10,17,15,54,11.50
2010,10,17,15,55,11.50
2010,10,17,15,56,11.60
2010,10,17,15,57,11.60
2010,10,17,15,58,11.60
2010,10,17,15,59,11.60
2010,10,17,16,00,11.60
2010,10,17,16,01,11.60
2010,10,17,16,02,11.60
2010,10,17,16,03,11.60
2010,10,17,16,04,11.60
2010,10,17,16,05,11.50
2010,10,17,16,06,11.50
2010,10,17,16,07,11.40
2010,10,17,16,08,11.40
2010,10,17,16,09,11.50
2010,10,17,16,10,11.50
2010,10,17,16,11,11.50
2010,10,17,16,12,11.50
2010,10,17,16,13,11.50
2010,10,17,16,14,11.40
2010,10,17,16,15,11.40
2010,10,17,16,16,11.40
2010,10,17,16,17,11.40
2010,10,17,16,18,11.40
2010,10,17,16,19,11.40
2010,10,17,16,20,11.40
2010,10,17,16,21,11.40
2010,10,17,16,22,11.40
2010,10,17,16,23,11.40
2010,10,17,16,24,11.40
2010,10,17,16,25,11.40
2010,10,17,16,26,11.30
2010,10,17,16,27,11.30
2010,10,17,16,28,11.30
2010,10,17,16,29,11.30
2010,10,17,16,30,11.20
2010,10,17,16,31,11.20
2010,10,17,16,32,11.20
2010,10,17,16,33,11.20
2010,10,17,16,34,11.20
2010,10,17,16,35,11.20
2010,10,17,16,36,11.20
2010,10,17,16,37,11.20
2010,10,17,16,38,11.20
2010,10,17,16,39,11.20
2010,10,17,16,40,11.20
2010,10,17,16,41,11.20
2010,10,17,16,42,11.20
2010,10,17,16,43,11.20
2010,10,17,16,44,11.30
2010,10,17,16,45,11.30
2010,10,17,16,46,11.30
2010,10,17,16,47,11.30
2010,10,17,16,48,11.30
2010,10,17,16,49,11.30
2010,10,17,16,50,11.30
2010,10,17,16,51,11.30
2010,10,17,16,52,11.30
2010,10,17,16,53,11.30
2010,10,17,16,54,11.20
2010,10,17,16,55,11.20
2010,10,17,16,56,11.10
2010,10,17,16,57,11.10
2010,10,17,16,58,11.00
2010,10,17,16,59,11.00
2010,10,17,17,00,11.00
2010,10,17,17,01,10.90
2010,10,17,17,02,10.90
2010,10,17,17,03,10.90
2010,10,17,17,04,10.90
2010,10,17,17,05,10.80
2010,10,17,17,06,10.80
2010,10,17,17,07,10.80
2010,10,17,17,08,10.80
2010,10,17,17,09,10.80
2010,10,17,17,10,10.80
2010,10,17,17,11,10.80
2010,10,17,17,12,10.80
2010,10,17,17,13,10.80
2010,10,17,17,14,10.80
2010,10,17,17,15,10.80
2010,10,17,17,16,10.70
2010,10,17,17,17,10.70
2010,10,17,17,18,10.70
2010,10,17,17,19,10.70
2010,10,17,17,20,10.70
2010,10,17,17,21,10.70
2010,10,17,17,22,10.70
2010,10,17,17,23,10.70
2010,10,17,17,24,10.70
2010,10,17,17,25,10.70
2010,10,17,17,26,10.70
2010,10,17,17,27,10.70
2010,10,17,17,28,10.70
2010,10,17,17,29,10.70
2010,10,17,17,30,10.60
2010,10,17,17,31,10.60
2010,10,17,17,32,10.60
2010,10,17,17,33,10.60
2010,10,17,17,34,10.60
2010,10,17,17,35,10.60
2010,10,17,17,36,10.50
2010,10,17,17,37,10.50
2010,10,17,17,38,10.50
2010,10,17,17,39,10.50
2010,10,17,17,40,10.50
2010,10,17,17,41,10.40
2010,10,17,17,42,10.40
2010,10,17,17,43,10.40
2010,10,17,17,44,10.40
2010,10,17,17,45,10.30
2010,10,17,17,46,10.30
2010,10,17,17,47,10.20
2010,10,17,17,48,10.20
2010,10,17,17,49,10.20
2010,10,17,17,50,10.10
2010,10,17,17,51,10.10